FW3124 Weather Reports


Display with metric or nautical units.
time (UTC)temp
F
wind
direction
speed
MPH
gust
MPH
rain 1hr
in
rain 24hr
in
rain mn
in
humidity
%
barometer
mb
20260510103014 0 0.0 0.0 0.00 0.00 0.00 1012.3
20260510101511 0 0.0 0.0 0.00 0.00 0.00 1012.1
20260510100004 0 0.0 0.0 0.00 0.00 0.00 1011.9
20260510094600 0 0.0 0.0 0.00 0.00 0.00 1011.9
20260510093100 47 259 0.0 0.0 0.00 0.00 0.00 51 1011.8
20260510091556 49 264 0.0 0.0 0.00 0.00 0.00 50 1011.7
20260510090052 50 264 0.0 0.0 0.00 0.00 0.00 49 1011.5
20260510084551 50 264 0.0 0.0 0.00 0.00 0.00 50 1011.5
20260510083054 50 264 0.0 0.0 0.00 0.00 0.00 50 1011.4
20260510081548 51 264 0.0 0.0 0.00 0.00 0.00 52 1011.4
20260510080043 51 264 0.0 2.0 0.00 0.00 0.00 51 1011.3
20260510074541 52 264 0.0 0.0 0.00 0.00 0.00 49 1011.2
20260510073039 52 264 0.0 1.0 0.00 0.00 0.00 50 1011.1
20260510071548 52 264 0.0 0.0 0.00 0.00 0.00 50 1010.8
20260510070034 51 264 0.0 0.0 0.00 0.00 0.00 56 1010.8
20260510064532 52 264 0.0 0.0 0.00 0.00 0.00 57 1010.7
20260510063030 52 264 0.0 0.0 0.00 0.00 0.00 57 1010.8
20260510061539 52 264 0.0 0.0 0.00 0.00 0.00 63 1010.8
20260510060025 53 264 0.0 0.0 0.00 0.00 0.00 62 1010.6
20260510054523 53 264 0.0 0.0 0.00 0.00 0.00 63 1010.5
20260510053021 53 264 0.0 0.0 0.00 0.00 0.00 65 1010.7
20260510051518 53 264 0.0 0.0 0.00 0.00 0.00 68 1010.6
20260510050015 54 264 0.0 0.0 0.00 0.00 0.00 70 1010.7
20260510044512 55 264 0.0 0.0 0.00 0.00 0.00 70 1010.6
20260510043014 56 264 0.0 0.0 0.00 0.00 0.00 74 1010.6
20260510041504 57 264 0.0 1.0 0.00 0.00 0.00 73 1010.5
20260510040001 58 264 0.0 0.0 0.00 0.00 0.00 73 1010.6
20260510034503 59 264 0.0 1.0 0.00 0.00 0.00 74 1010.5
20260510033124 59 264 0.0 1.0 0.00 0.00 0.00 73 1010.3
20260510031601 58 264 0.0 1.0 0.00 0.00 0.00 72 1010.1
20260510030059 58 264 0.0 0.0 0.00 0.00 0.00 74 1010.0
20260510024602 58 264 0.0 0.0 0.00 0.00 0.00 75 1009.9
20260510023058 58 264 0.0 0.0 0.00 0.00 0.00 75 1009.7
20260510021557 59 264 0.0 0.0 0.00 0.00 0.00 75 1009.6
20260510020057 59 264 0.0 0.0 0.00 0.00 0.00 75 1009.4
20260510014557 59 264 0.0 0.0 0.00 0.00 0.00 75 1009.2
20260510013057 60 264 0.0 0.0 0.00 0.00 0.00 75 1009.0
20260510011558 61 264 0.0 0.0 0.00 0.00 0.00 74 1008.8
20260510010055 62 264 0.0 0.0 0.00 0.00 0.00 71 1008.6
20260510004556 63 264 0.0 0.0 0.00 0.00 0.00 69 1008.4
20260510003110 65 264 0.0 0.0 0.00 0.00 0.00 66 1008.2
20260510001553 67 264 0.0 0.0 0.00 0.00 0.00 62 1008.1
20260510000057 69 264 0.0 0.0 0.00 0.00 0.00 58 1007.9
20260509234603 70 264 0.0 3.0 0.00 0.00 0.00 56 1007.9
20260509233051 72 264 0.0 1.0 0.00 0.00 0.00 53 1007.8
20260509231554 74 264 0.0 3.0 0.00 0.00 0.00 50 1007.8
20260509230100 76 264 0.0 6.0 0.00 0.00 0.00 47 1007.9
20260509224549 76 264 1.0 7.0 0.00 0.00 0.00 47 1007.8
20260509223049 75 264 0.0 3.0 0.00 0.00 0.00 50 1007.7
20260509221548 76 264 0.0 3.0 0.00 0.00 0.00 48 1007.7
20260509220047 77 264 0.0 7.0 0.00 0.00 0.00 45 1007.8
20260509214549 78 264 0.0 5.0 0.00 0.00 0.00 46 1007.8
20260509213046 78 264 1.0 7.0 0.00 0.00 0.00 47 1007.7
20260509211545 79 264 1.0 6.0 0.00 0.00 0.00 45 1007.7
20260509210050 79 264 2.0 7.0 0.00 0.00 0.00 43 1007.6
20260509204543 78 264 1.0 9.0 0.00 0.00 0.00 46 1007.5
20260509203041 79 264 1.0 9.0 0.00 0.00 0.00 43 1007.4
20260509201539 79 265 2.0 7.0 0.00 0.00 0.00 45 1007.5
20260509200040 78 265 4.0 10.0 0.00 0.00 0.00 46 1007.6
20260509194537 79 264 1.0 6.0 0.00 0.00 0.00 45 1007.9
20260509193034 80 264 3.0 6.0 0.00 0.00 0.00 45 1008.1
20260509191531 79 264 2.0 8.0 0.00 0.00 0.00 47 1008.2
20260509190027 77 264 2.0 7.0 0.00 0.00 0.00 49 1008.6
20260509184522 75 264 1.0 5.0 0.00 0.00 0.00 55 1008.9
20260509183026 74 264 1.0 7.0 0.00 0.00 0.00 55 1009.0
20260509181526 75 264 1.0 7.0 0.00 0.00 0.00 49 1009.2
20260509180015 76 265 0.0 4.0 0.00 0.00 0.00 53 1009.2
20260509174513 73 265 4.0 7.0 0.00 0.00 0.00 56 1009.6
20260509173013 75 265 1.0 10.0 0.00 0.00 0.00 54 1009.7
20260509171508 73 264 2.0 6.0 0.00 0.00 0.00 57 1009.9
20260509170008 73 264 1.0 7.0 0.00 0.00 0.00 61 1009.9
20260509164510 73 264 2.0 6.0 0.00 0.00 0.00 58 1009.9
20260509163002 73 265 3.0 6.0 0.00 0.00 0.00 58 1010.1
20260509161559 71 265 3.0 7.0 0.00 0.00 0.00 60 1010.2
20260509160100 71 264 3.0 9.0 0.00 0.00 0.00 60 1010.3
20260509154601 71 264 2.0 10.0 0.00 0.00 0.00 60 1010.4
20260509153057 71 264 2.0 5.0 0.00 0.00 0.00 62 1010.5
20260509151551 69 264 4.0 8.0 0.00 0.00 0.00 60 1010.7
20260509150048 69 264 2.0 9.0 0.00 0.00 0.00 62 1010.8
20260509144545 67 264 3.0 8.0 0.00 0.00 0.00 62 1010.8
20260509143042 65 264 1.0 8.0 0.00 0.00 0.00 64 1011.1
20260509141537 65 264 1.0 5.0 0.00 0.00 0.00 65 1011.5
20260509140034 65 264 2.0 7.0 0.00 0.00 0.00 65 1011.5
20260509134532 64 264 0.0 5.0 0.00 0.00 0.00 66 1011.7
20260509133032 63 264 1.0 4.0 0.00 0.00 0.00 65 1011.8
20260509131526 62 264 1.0 4.0 0.00 0.00 0.00 67 1011.9
20260509130023 61 264 1.0 3.0 0.00 0.00 0.00 69 1011.9
20260509124520 0 0.0 0.0 0.00 0.00 0.00 1011.8
20260509123016 0 0.0 0.0 0.00 0.00 0.00 1011.9
20260509121514 0 0.0 0.0 0.00 0.00 0.00 1011.9
20260509120007 0 0.0 0.0 0.00 0.00 0.00 1011.9
20260509114503 0 0.0 0.0 0.00 0.00 0.00 1012.0
20260509113059 0 0.0 0.0 0.00 0.00 0.00 1012.1
20260509111554 0 0.0 0.0 0.00 0.00 0.00 1011.8
20260509110050 0 0.0 0.0 0.00 0.00 0.00 1011.9
20260509104545 0 0.0 0.0 0.00 0.00 0.00 1011.7